Lapse_Rate
5.4 5.4 5.4 5.4 5.4 5.5 5.6 5.8 5.8 5.9 6.0 6.1 6.3 6.5 6.9 7.0 7.0 6.9 6.9 6.9 6.9 7.0 7.0 6.9 6.9 6.7 6.8 7.0 7.3 7.4 7.5 8.8 8.6 8.4 8.3 8.3 8.2 8.6 8.7 8.4 8.7 8.6 8.3 8.0 8.2
5.2 5.2 5.3 5.4 5.5 5.6 5.7 5.9 6.0 6.2 6.2 6.2 6.3 6.5 6.7 7.0 7.2 7.2 7.2 7.2 7.1 7.2 7.2 7.0 7.2 7.3 7.1 7.1 7.4 7.6 7.8 8.9 8.5 8.3 8.2 8.2 8.1 8.3 8.8 8.8 8.8 8.8 8.8 8.6 8.4
5.2 5.3 5.5 5.5 5.6 5.7 5.8 6.0 6.2 6.2 6.2 6.3 6.4 6.5 6.6 6.8 6.8 7.3 7.2 7.2 7.2 7.2 7.1 7.1 7.0 7.1 7.3 7.2 7.0 7.3 7.9 8.0 8.4 8.3 8.1 8.2 8.4 8.2 8.7 9.0 8.8 8.6 8.6 8.7 8.7
5.5 5.6 5.7 5.8 5.9 6.1 6.2 6.3 6.3 6.2 6.2 6.3 6.4 6.5 6.5 6.6 6.2 6.5 6.9 7.0 7.1 7.1 7.0 7.1 7.2 7.2 6.8 6.5 6.7 6.6 7.7 7.9 8.0 8.0 8.1 8.2 8.2 8.5 8.6 8.8 9.0 8.4 8.6 8.3 8.5
5.5 5.7 5.9 6.0 6.0 6.1 6.3 6.3 6.3 6.3 6.4 6.4 6.5 6.6 6.6 6.5 6.3 6.4 6.5 6.7 6.7 6.7 6.6 6.5 6.5 6.3 6.2 6.6 6.7 6.6 7.4 7.8 8.0 8.3 8.0 8.3 8.3 8.5 8.7 8.5 9.2 9.3 8.9 8.9 8.7
6.0 6.0 6.0 6.0 6.0 6.1 6.2 6.4 6.4 6.6 6.6 6.7 6.9 6.8 6.7 6.5 6.7 6.5 6.4 6.5 6.5 6.4 6.4 6.5 6.0 5.5 5.7 6.3 6.5 7.1 7.3 7.5 7.8 8.0 8.3 8.4 8.5 8.6 8.9 8.9 9.1 9.3 9.3 9.1 8.9
5.8 5.9 6.0 6.1 6.1 6.2 6.3 6.5 6.5 6.6 6.7 6.7 6.8 7.0 6.8 6.5 6.8 6.8 6.6 6.4 6.3 6.3 6.2 6.3 6.2 5.8 5.9 6.2 6.3 6.6 7.0 7.6 7.9 8.3 8.6 8.5 8.8 8.8 8.9 8.7 9.0 9.3 9.4 9.3 9.2
5.8 5.9 6.0 6.2 6.3 6.3 6.5 6.5 6.7 6.8 6.8 6.9 6.9 6.9 6.6 6.6 6.7 6.7 6.5 6.3 6.2 6.3 6.3 6.2 6.2 6.1 5.6 6.0 6.1 6.7 7.2 7.7 8.4 8.6 8.8 8.1 8.7 9.1 9.0 8.5 8.3 8.5 8.9 9.4 9.4
5.6 5.7 6.0 6.2 6.3 6.4 6.6 6.7 6.6 6.7 6.7 6.7 6.7 6.6 6.4 6.4 6.5 6.5 6.4 6.3 6.2 6.1 6.1 6.0 5.8 5.6 5.7 5.9 6.7 7.3 7.4 8.1 8.4 8.7 8.1 8.4 8.6 9.1 8.7 8.4 8.3 8.8 9.1 9.4 9.5
5.8 5.8 6.2 6.3 6.4 6.4 6.6 6.6 6.6 6.6 6.6 6.4 6.4 6.2 6.0 6.1 6.4 6.6 6.5 6.2 6.0 6.0 6.1 6.0 5.9 5.5 5.7 6.2 6.9 8.1 8.7 8.7 8.6 8.6 8.7 8.4 8.4 8.5 8.6 8.6 8.3 8.4 8.9 9.2 9.5
5.8 5.7 6.0 6.2 6.3 6.4 6.4 6.5 6.4 6.2 6.2 6.2 5.9 5.8 5.5 5.8 6.0 6.2 6.2 6.2 5.9 5.8 5.5 5.4 5.7 6.1 6.6 6.8 6.8 7.6 8.3 9.0 8.9 8.2 8.4 8.4 8.3 8.2 7.9 8.6 8.7 8.5 8.7 9.1 9.4
5.8 5.8 6.0 6.1 6.2 6.2 6.3 6.3 6.2 6.2 5.6 5.5 5.5 5.5 5.6 5.9 5.8 5.8 6.0 6.1 6.1 5.5 5.7 5.7 5.7 6.4 6.5 6.5 6.5 6.9 7.9 8.4 8.7 8.8 8.4 8.7 8.5 8.6 8.0 8.2 8.7 8.8 8.5 9.0 9.4
5.9 5.8 5.8 5.9 6.0 6.1 6.1 6.1 6.1 6.0 5.9 5.3 5.3 5.4 5.6 5.9 5.7 5.8 5.9 5.9 6.0 5.7 5.9 6.0 6.8 6.5 6.4 6.2 6.4 6.9 7.7 8.5 9.2 9.5 9.5 8.9 8.4 8.8 8.7 8.4 8.7 8.7 8.7 9.0 9.4
5.7 5.6 5.7 5.8 5.9 6.0 5.9 5.8 6.0 6.1 5.6 5.1 5.1 5.2 5.4 5.7 5.7 5.7 5.9 6.1 6.2 6.1 6.1 6.4 6.8 6.7 6.6 6.6 7.0 7.4 8.4 8.7 8.9 9.5 9.5 9.6 9.7 9.4 9.6 8.8 9.0 8.9 9.3 9.1 9.3
5.7 5.7 5.8 6.0 5.9 5.8 5.8 5.7 5.7 5.8 7.3 5.4 5.1 5.4 5.3 5.6 5.7 5.6 6.1 6.1 6.1 6.1 6.0 7.3 6.7 6.7 6.9 7.1 7.6 7.7 8.4 9.5 9.5 9.4 9.5 9.5 9.6 9.6 9.6 9.1 9.0 9.2 9.6 9.3 9.3
5.8 5.7 5.7 5.8 5.8 5.8 5.7 5.6 5.6 5.8 6.7 5.3 5.4 5.4 5.6 5.5 5.5 5.7 6.2 6.4 6.5 6.5 6.4 6.7 6.9 7.1 7.4 7.8 8.2 8.4 8.7 9.4 9.4 9.4 9.7 9.5 9.5 9.6 9.6 9.7 9.6 9.6 9.7 9.5 9.4
5.8 5.8 5.7 5.7 5.6 5.5 5.5 5.4 5.5 6.5 5.5 5.3 5.4 5.5 5.8 6.0 6.1 5.8 6.2 6.2 6.6 6.8 7.7 7.7 8.4 8.1 7.8 8.0 8.7 9.2 9.5 9.6 9.7 9.8 9.9 9.7 9.6 9.6 9.6 9.7 9.6 9.3 9.5 9.4 9.2
5.8 5.8 5.6 5.5 5.5 5.3 5.3 5.0 5.8 5.2 5.2 4.9 5.4 5.5 6.0 6.0 6.3 6.2 6.5 6.6 6.0 6.5 7.3 8.1 9.2 8.7 8.7 8.7 9.4 9.6 9.5 9.6 9.5 9.4 9.3 9.0 9.5 9.6 9.6 9.6 9.2 9.0 8.9 9.2 9.1
5.6 5.8 5.7 5.6 5.4 5.3 5.3 5.6 5.9 5.1 5.0 5.0 5.4 6.0 6.3 6.2 6.4 6.6 6.7 6.6 6.2 6.2 6.9 7.9 9.1 8.9 9.0 9.4 9.6 9.5 9.2 9.6 9.5 9.3 9.7 9.0 9.1 9.6 9.5 9.6 9.3 8.8 9.1 9.1 9.1
5.2 5.2 5.4 5.4 5.2 5.1 4.8 5.3 4.9 5.0 5.0 5.1 5.8 5.8 6.4 6.3 6.7 6.8 6.9 6.4 6.5 6.5 6.8 7.7 8.1 9.4 9.2 9.1 9.3 9.5 9.6 9.6 9.5 9.5 9.4 9.3 9.2 9.5 9.6 9.6 9.1 8.6 8.7 9.0 9.0
5.1 5.0 5.2 5.2 5.0 4.9 5.1 5.0 4.5 4.6 5.1 5.1 5.6 6.0 6.2 6.3 6.4 6.8 7.0 7.0 6.4 6.9 7.0 7.7 8.1 9.1 9.4 9.4 9.6 9.5 9.5 9.5 9.6 9.3 9.4 9.8 9.7 9.8 9.6 9.3 8.7 8.5 9.1 9.1 8.9
5.1 4.7 5.2 5.1 5.0 4.9 4.9 4.6 4.8 4.6 5.0 5.1 5.5 5.8 6.0 6.1 6.5 6.8 7.0 6.8 6.2 6.6 7.4 7.5 7.8 8.5 9.4 9.4 8.9 9.3 9.4 9.4 9.5 9.5 9.5 9.5 9.4 9.7 9.0 8.9 8.8 9.0 8.9 8.9 8.7
5.0 5.0 5.3 5.2 5.1 5.0 4.7 5.0 5.1 4.8 4.9 5.2 5.6 5.6 5.7 6.0 6.3 6.6 6.8 6.7 6.5 6.6 6.8 7.3 8.5 8.6 9.5 9.3 8.7 9.4 8.9 9.1 9.3 9.3 9.2 9.6 9.6 9.8 9.0 8.7 9.0 8.9 8.9 8.6 8.4
5.1 4.8 5.1 5.3 5.3 5.0 4.8 5.0 5.1 5.2 5.1 5.3 5.4 5.5 5.7 6.1 6.1 6.3 6.6 6.9 6.7 6.7 6.6 7.0 7.8 8.2 9.2 9.2 8.9 8.9 9.0 8.8 8.7 9.2 9.3 9.4 9.5 9.7 8.7 8.9 8.9 8.8 8.6 8.3 8.3
5.0 4.6 5.0 4.9 4.7 4.9 4.9 4.8 5.2 5.3 5.3 5.4 5.6 5.6 5.7 5.9 6.4 6.5 6.5 6.7 7.1 7.1 7.0 7.1 7.2 8.1 8.7 8.8 8.7 8.7 8.7 8.8 9.0 9.2 9.0 9.0 9.3 9.4 8.5 8.7 9.2 8.8 8.5 8.3 7.9
4.8 4.8 5.1 5.0 5.1 5.1 4.7 5.1 5.2 5.4 5.3 5.8 5.8 5.7 5.8 6.0 6.3 6.2 6.1 6.2 6.7 7.0 7.0 7.1 7.1 7.7 8.0 8.5 9.0 8.7 8.7 8.7 8.6 8.5 8.4 8.5 8.4 8.1 8.4 8.6 8.8 8.1 8.2 8.0 8.2
4.9 4.9 4.9 4.5 5.0 5.0 5.2 5.1 5.2 5.4 5.5 5.5 5.4 5.7 6.0 6.0 5.9 5.9 5.8 6.2 6.5 6.7 6.9 6.7 7.1 7.6 8.0 8.6 9.0 8.9 9.1 9.2 8.3 8.0 7.3 7.7 7.6 8.1 8.1 8.0 8.2 8.5 7.3 7.9 8.2
Wind_Speed
22 23 23 23 23 23 23 23 23 22 21 21 21 20 15 11 4 5 9 2 5 26 18 16 12 11 12 7 9 7 6 5 1 3 4 5 9 5 3 6 8 8 3 4 18
23 23 23 24 24 25 25 24 23 23 22 21 19 19 18 13 9 13 3 9 18 27 21 21 18 16 8 8 5 8 8 6 4 5 8 10 10 11 6 7 10 10 8 12 20
23 23 24 26 27 28 28 26 25 24 23 20 18 17 16 15 9 3 4 16 28 23 15 13 11 14 12 8 9 6 13 8 11 10 12 13 12 8 8 10 11 14 14 17 23
23 24 25 26 27 28 28 27 27 26 24 20 17 14 15 5 5 5 9 18 22 21 14 12 14 15 12 11 11 11 15 13 17 15 16 15 16 14 8 13 2 10 19 21 23
23 24 26 27 28 29 30 28 29 27 24 22 15 11 7 7 10 7 12 17 21 15 17 15 14 13 13 8 11 15 19 17 17 14 13 16 17 17 17 9 7 9 20 22 22
22 23 25 27 28 30 29 28 26 25 23 20 12 8 8 11 5 4 9 19 14 14 15 15 8 8 11 14 14 14 15 17 16 19 14 17 18 13 15 3 10 11 17 19 22
23 24 26 29 32 34 34 33 29 26 21 13 4 5 7 9 3 8 11 13 9 12 10 13 9 10 4 12 10 13 17 18 19 17 18 15 21 17 14 2 9 12 13 16 19
25 28 30 31 33 35 36 34 31 22 10 1 8 5 4 3 2 10 11 11 10 11 13 11 9 14 17 13 14 16 13 14 16 13 11 10 17 14 4 6 7 8 11 15 20
27 30 31 32 34 36 36 34 21 2 5 9 6 5 2 5 5 2 8 11 10 9 9 7 10 14 12 15 16 15 15 18 15 10 6 12 18 16 5 10 13 14 12 14 18
27 28 30 31 34 36 37 28 4 8 6 5 3 5 4 3 4 4 5 5 3 6 8 12 9 13 15 15 18 20 19 19 17 17 14 15 19 15 19 18 17 16 15 12 19
25 27 28 30 34 36 17 4 4 5 1 5 5 4 2 10 3 4 4 11 15 10 14 15 14 20 22 21 22 23 23 23 19 10 17 15 20 17 16 21 19 19 14 14 19
24 25 26 32 35 34 11 5 5 5 6 2 5 7 6 4 3 3 5 7 10 15 13 11 16 20 22 19 22 24 24 24 22 16 20 18 21 16 17 22 17 21 14 14 13
23 24 29 31 36 10 7 7 4 4 6 2 3 5 5 4 4 1 5 2 9 13 14 16 18 4 12 18 23 25 23 23 24 20 18 17 22 21 15 16 16 17 15 13 15
24 24 27 32 10 7 1 1 9 4 5 3 3 3 3 5 3 2 3 6 4 8 7 12 13 16 16 17 18 21 20 24 22 21 17 17 14 17 13 17 14 15 13 13 14
24 26 21 14 9 3 4 8 4 4 5 3 2 2 8 4 7 4 2 5 8 9 6 9 6 11 15 18 16 19 19 22 20 20 19 23 12 13 13 14 15 17 15 13 14
28 26 22 4 3 5 8 9 4 5 2 2 3 4 3 2 2 3 2 5 4 8 9 14 11 9 13 9 12 14 15 15 14 14 15 16 18 15 13 8 13 16 13 11 9
28 28 13 3 4 7 8 4 5 4 3 3 3 6 6 3 1 5 5 5 5 6 5 14 7 9 13 14 14 10 14 12 13 13 13 15 13 8 10 14 8 12 13 9 7
31 25 5 5 9 8 4 5 5 2 1 2 4 8 4 6 1 5 3 3 8 7 10 7 10 4 9 15 14 7 14 10 14 10 9 20 10 11 14 9 5 5 7 9 13
33 2 3 2 2 4 6 6 3 1 2 5 6 6 2 0 4 4 3 4 6 10 7 9 6 4 8 12 11 6 6 9 10 12 10 13 22 17 13 12 7 11 10 10 11
7 5 1 2 4 6 5 3 2 1 3 3 3 2 3 3 5 4 2 5 6 10 8 5 10 7 6 6 10 10 4 8 6 11 14 9 17 13 14 17 10 14 11 11 10
5 4 5 5 4 6 6 1 3 2 3 3 1 3 3 4 6 6 2 1 11 12 12 9 7 13 9 7 9 7 12 11 13 8 15 11 11 11 12 10 13 10 11 11 10
4 4 3 4 5 2 5 1 1 3 3 2 3 3 3 4 7 4 5 5 10 14 11 7 7 10 17 4 5 6 5 9 10 11 13 14 17 10 1 6 7 8 8 8 6
5 4 2 3 5 6 3 5 3 4 2 3 4 2 1 4 5 3 7 6 6 14 9 9 7 10 14 11 9 4 3 7 8 10 16 16 14 4 2 3 7 9 10 6 5
4 3 4 4 3 7 4 6 5 3 5 3 5 6 6 9 6 7 12 6 9 14 4 6 11 12 14 17 13 11 7 5 9 11 16 13 16 19 9 10 10 10 9 10 6
2 1 3 1 4 6 5 2 7 6 4 5 5 6 6 8 11 13 9 14 15 7 6 5 12 16 15 17 17 17 15 15 13 13 12 14 17 19 9 10 10 7 5 8 10
4 4 3 3 3 6 5 8 12 6 5 6 8 4 6 8 9 11 14 14 16 14 10 13 12 14 16 20 21 14 16 13 14 13 13 15 17 7 4 4 5 5 10 9 8
1 2 4 4 5 6 8 8 6 3 8 8 4 7 9 6 11 16 18 18 19 19 17 15 11 12 16 16 17 14 17 8 8 8 10 14 10 7 3 5 10 10 10 13 13
Wind_Direction
357 354 349 344 340 336 332 330 329 327 326 322 323 321 326 329 287 222 256 177 165 168 160 154 175 183 195 238 242 257 256 248 247 330 5 23 336 4 339 231 205 181 146 105 146
354 350 346 341 338 333 330 329 326 323 321 318 318 317 320 325 269 266 129 138 154 176 169 169 177 175 201 233 224 247 274 298 348 324 318 319 319 313 263 225 197 190 145 154 152
350 347 343 340 337 331 329 327 324 321 320 317 315 315 313 313 276 114 156 160 163 186 175 186 181 191 224 223 212 233 264 322 301 306 315 311 302 325 268 241 223 203 175 164 166
347 344 341 337 331 327 325 323 322 321 319 314 313 313 305 244 292 68 137 159 172 187 184 185 184 207 234 228 226 256 251 265 286 300 304 306 316 305 289 285 6 204 168 178 178
339 339 336 333 329 326 322 322 322 319 313 310 311 302 273 233 255 83 142 154 173 202 193 197 204 223 253 255 259 247 269 277 276 279 289 304 299 301 298 274 175 174 170 184 186
334 332 331 328 327 323 320 319 317 310 309 306 298 277 234 251 75 123 146 165 188 199 209 211 225 234 286 271 268 278 289 284 277 279 278 286 288 289 291 315 189 193 192 193 194
335 333 331 331 329 324 323 323 320 312 306 295 248 228 236 254 58 135 153 174 186 212 212 220 248 248 266 261 268 270 271 273 264 262 263 275 276 257 262 209 203 206 213 212 205
338 335 334 330 325 321 322 320 316 310 304 210 174 220 255 147 231 213 219 213 226 245 252 266 258 257 256 262 271 259 271 272 267 250 260 241 259 258 17 274 248 263 241 223 212
339 333 329 325 323 319 322 315 311 311 129 146 208 256 133 130 233 216 225 234 198 212 221 237 216 231 228 240 256 237 256 261 260 277 262 251 270 271 274 269 276 275 269 232 217
334 327 325 322 322 320 322 305 182 164 198 242 261 229 201 9 327 272 199 232 245 170 195 203 220 231 227 238 245 251 242 247 258 273 257 261 266 264 273 276 270 263 273 244 226
329 322 324 325 321 323 325 229 256 178 218 337 337 300 13 332 252 201 229 228 232 231 234 203 231 234 243 243 259 268 269 272 283 257 274 265 278 275 277 272 262 261 258 250 230
327 326 328 326 324 321 289 49 50 339 305 222 286 279 271 295 280 177 183 211 200 231 227 234 243 256 258 258 258 253 261 260 263 257 271 275 271 278 276 268 264 259 254 248 219
330 331 333 330 321 309 18 71 350 296 257 169 277 295 356 290 334 49 216 248 246 253 250 245 263 286 256 245 247 248 251 259 256 261 243 266 270 267 252 245 249 250 245 247 221
332 332 331 329 295 349 78 28 319 237 250 93 161 109 260 294 229 236 234 274 231 293 278 260 286 277 239 245 255 262 253 246 260 252 252 252 275 276 283 272 258 247 226 229 212
329 322 326 326 316 290 13 319 316 229 234 55 63 15 315 299 340 127 322 210 272 280 256 274 296 282 254 260 271 272 276 266 247 252 254 253 255 259 261 263 261 249 225 210 200
322 323 330 194 234 300 315 313 231 230 154 144 317 325 318 172 100 291 244 228 287 272 253 270 280 261 276 281 272 281 269 253 269 268 253 237 255 265 258 272 271 233 225 227 217
320 319 312 299 357 323 307 235 249 272 150 51 345 328 317 324 282 29 39 63 341 296 313 321 284 240 236 263 260 238 243 244 233 226 242 245 263 265 288 277 272 294 289 292 277
321 318 180 272 306 304 252 242 257 51 8 356 304 289 266 345 209 341 295 54 47 343 304 330 328 158 206 232 269 257 259 270 286 279 328 344 220 246 236 262 304 301 294 292 282
316 279 244 30 297 267 260 245 16 323 347 323 275 255 181 132 294 308 356 30 36 23 341 312 307 325 266 253 239 142 236 305 247 263 274 216 232 269 254 247 47 345 339 327 321
319 294 200 337 272 263 255 331 180 357 314 249 289 300 284 1 296 318 300 81 4 357 345 327 296 315 309 278 227 261 182 214 193 255 248 240 273 279 280 279 333 321 341 338 337
262 280 95 333 264 241 265 37 188 136 268 254 271 273 291 317 315 310 332 12 16 347 322 309 269 302 271 232 293 215 221 242 272 222 257 270 259 259 253 315 315 330 351 349 340
295 267 74 293 245 250 226 199 64 221 187 218 271 290 285 302 288 286 293 328 2 338 326 16 298 292 296 331 283 269 307 294 270 234 242 270 279 303 254 286 332 347 354 5 349
302 292 129 270 254 213 161 217 252 239 215 219 232 239 304 286 281 263 312 329 322 332 342 338 296 299 266 193 200 248 334 298 269 257 267 278 278 166 130 218 355 357 1 24 36
281 267 162 217 299 295 226 224 224 196 255 262 290 260 257 261 227 284 296 307 308 305 76 272 281 279 287 319 323 296 285 278 279 285 293 279 277 272 36 360 355 351 357 352 67
242 73 355 269 193 261 262 310 238 224 218 232 210 242 287 281 277 272 290 307 313 298 255 291 282 284 279 281 287 285 286 284 266 288 277 297 303 298 21 351 343 348 5 30 37
298 296 181 270 250 248 187 237 250 218 245 207 256 320 289 268 292 306 314 303 303 300 306 307 285 284 283 277 272 275 272 272 276 273 277 276 283 34 20 307 53 20 58 71 65
94 252 281 134 216 239 236 250 247 244 229 262 280 297 278 337 334 301 290 284 276 282 283 280 278 281 273 285 286 264 265 263 292 266 322 287 1 349 21 69 29 18 35 46 57